Notices

What's New in latest Release from April 7th, 2021:

- Updated Glossary, including Speed of Maximum Gust, and Total Hourly Precipitation

- Updated national and regional climate services offices contacts and prices information

- Addition of station inventory lists for 1981-2010, 1971-2000, and 1961-1990 Normals.

If you haven't already, please take our survey and provide feedback about our website: https://eccc.sondage-survey.ca/f/LanguageSelection.aspx?s=442ca660-fcf1-47c0-95a9-59707d6fd709

Hourly Data Report for February 22, 2017

TORONTO CITY
ONTARIO

43°40'00.000" N
79°24'00.000" W
112.50 m
6158355
71508
XTO

Download Data

Hourly Data (February 2017)
Hourly Data Report for February 22, 2017
TIME
LST
Temp Definition
°C
Dew Point Definition
°C
Rel Hum Definition
%
Precip. Amount Definition
mm

Wind Dir Definition
10's deg

Wind Spd Definition
km/h
Visibility Definition
km
Stn Press Definition
kPa
Hmdx Definition


Wind Chill Definition


Weather Definition


00:00 5.1 2.3 82 0.0 LegendMM LegendMM   100.02     LegendNANA
01:00 5.2 1.4 77 0.0 LegendMM LegendMM   100.00     LegendNANA
02:00 5.1 0.8 74 0.0 LegendMM LegendMM   99.98     LegendNANA
03:00 5.0 1.4 77 0.0 LegendMM LegendMM   99.97     LegendNANA
04:00 5.1 2.2 82 0.0 LegendMM LegendMM   99.92     LegendNANA
05:00 5.0 3.6 90 0.0 LegendMM LegendMM   99.96     LegendNANA
06:00 5.2 4.2 93 0.0 LegendMM LegendMM   99.95     LegendNANA
07:00 5.7 4.5 92 0.0 LegendMM LegendMM   99.91     LegendNANA
08:00 6.0 5.0 93 0.0 LegendMM LegendMM   99.90     LegendNANA
09:00 6.4 5.6 95 0.0 LegendMM LegendMM   99.87     LegendNANA
10:00 5.9 5.2 95 0.0 LegendMM LegendMM   99.85     LegendNANA
11:00 5.4 4.8 96 0.0 LegendMM LegendMM   99.82     LegendNANA
12:00 6.4 5.8 96 0.0 LegendMM LegendMM   99.78     LegendNANA
13:00 7.1 5.4 89 0.0 LegendMM LegendMM   99.72     LegendNANA
14:00 7.9 5.5 85 0.0 LegendMM LegendMM   99.61     LegendNANA
15:00 7.3 4.6 83 0.0 LegendMM LegendMM   99.58     LegendNANA
16:00 7.0 4.8 86 0.0 LegendMM LegendMM   99.52     LegendNANA
17:00 6.8 4.4 85 0.0 LegendMM LegendMM   99.48     LegendNANA
18:00 7.1 4.7 85 0.0 LegendMM LegendMM   99.45     LegendNANA
19:00 7.5 4.8 83 0.0 LegendMM LegendMM   99.46     LegendNANA
20:00 8.1 5.1 81 0.0 LegendMM LegendMM   99.45     LegendNANA
21:00 8.6 6.1 84 0.0 LegendMM LegendMM   99.41     LegendNANA
22:00 8.7 6.6 87 0.0 LegendMM LegendMM   99.37     LegendNANA
23:00 9.8 8.3 90 0.0 LegendMM LegendMM   99.29     LegendNANA

Notes on Data Quality.

Legend

  • E = Estimated
  • M = Missing
  • NA = Not Available*
  • [empty] = Indicates an unobserved value
Date modified: